Regional Weather Roundup
Issued by NWS Northern Indiana

Home | Current Version | Previous Version | Graphics & Text | Print | Product List | Glossary On
Versions: 1 2 3 4 5 6 7 8 9 10 11 12 13 14 15 16 17 18 19 20 21 22 23 24 25 26 27 28 29 30 31 32 33 34 35 36 37 38 39 40 41 42 43 44 45 46 47 48 49 50
000
ASUS43 KIWX 020010
RWRIWX

KIWX WEATHER ROUNDUP
NATIONAL WEATHER SERVICE NORTHERN INDIANA
800 PM EDT WED APR 01 2015

NOTE: "FAIR" INDICATES FEW OR NO CLOUDS BELOW 12,000 FEET WITH NO
SIGNIFICANT WEATHER AND/OR OBSTRUCTIONS TO VISIBILITY.

* THESE STATIONS ARE NOT UNDER NWS QUALITY CONTROL. THEY ALSO MAY NOT
  REPORT WEATHER SUCH AS PRECIPITATION OR FOG.

INZ001>027-020100-
NORTHERN INDIANA

CITY           SKY/WX    TMP DP  RH WIND       PRES   REMARKS
GARY*          PTCLDY    70  25  18 S9G21     29.91F
VALPARAISO     PTCLDY    64  37  36 S9        29.94S
6HR MIN TEMP:  64; 6HR MAX TEMP:  71;

MICHIGAN CITY* PTCLDY    64  28  25 S10       29.93S
LAPORTE*       PTCLDY    65  37  35 S10       29.94F
6HR MIN TEMP:  65; 6HR MAX TEMP:  72;

KNOX*          CLEAR     63   3   9 S9        29.95S
SOUTH BEND     PTCLDY    65  33  30 S14       29.95S
6HR MIN TEMP:  65; 6HR MAX TEMP:  71;

ELKHART*       CLEAR     64  28  25 S9        29.96F
GOSHEN         PTCLDY    63  36  36 S12       29.97S
6HR MIN TEMP:  63; 6HR MAX TEMP:  69;

MONTICELLO*    CLEAR     63  38  39 SE7       29.96F
6HR MIN TEMP:  63; 6HR MAX TEMP:  69;

LOGANSPORT*    CLEAR     57  37  47 SE9       29.99S
ROCHESTER*     CLEAR     63  36  36 S7        29.98F
WARSAW*        CLEAR     63  36  36 S6        29.99S
ANGOLA*        CLEAR     61  37  41 S9        29.98F
FORT WAYNE     MOCLDY    58  38  47 S8        30.01F
6HR MIN TEMP:  58; 6HR MAX TEMP:  67;

HUNTINGTON*    CLEAR     62  29  29 S6        30.00S
6HR MIN TEMP:  62; 6HR MAX TEMP:  67;

PERU/GRISSOM   CLEAR     60  38  42 S10       29.98F
6HR MIN TEMP:  60; 6HR MAX TEMP:  69;

MARION*        CLEAR     59  36  41 S8        30.02S
6HR MIN TEMP:  -9; 6HR MAX TEMP:  69;


$$
INZ028>050-020100-
CENTRAL INDIANA

CITY           SKY/WX    TMP DP  RH WIND       PRES   REMARKS
LAFAYETTE      CLEAR     64  35  34 S8G20     29.97S
6HR MIN TEMP:  64; 6HR MAX TEMP:  69;

KOKOMO*        CLEAR     59  37  44 S10       30.00F
6HR MIN TEMP:  59; 6HR MAX TEMP:  68;

MUNCIE*        CLEAR     63  34  33 S9        30.03S
6HR MIN TEMP:  63; 6HR MAX TEMP:  68;

INDIANAPOLIS   MOCLDY    63  33  32 SE13      30.00F
6HR MIN TEMP:  63; 6HR MAX TEMP:  69;


$$
MIZ043>046-050>051-056>058-064>065-071>073-077>080-020100-
SOUTHWEST LOWER MICHIGAN

CITY           SKY/WX    TMP DP  RH WIND       PRES   REMARKS
BATTLE CREEK   PTCLDY    62  36  37 S10       29.95F
6HR MIN TEMP:  62; 6HR MAX TEMP:  67;

BENTON HARBOR  PTCLDY    65  36  34 S10       29.91F
6HR MIN TEMP:  63; 6HR MAX TEMP:  69;

COLDWATER*     CLEAR     61  33  34 S5        29.97S
6HR MIN TEMP:  61; 6HR MAX TEMP:  66;

HILLSDALE*     CLEAR     60  33  36 S6        29.99S
6HR MIN TEMP:  60; 6HR MAX TEMP:  66;

HOLLAND        PTCLDY    63  38  39 S7        29.90F
6HR MIN TEMP:  61; 6HR MAX TEMP:  70;

GRAND RAPIDS   MOCLDY    60  36  40 S9        29.92F
6HR MIN TEMP:  59; 6HR MAX TEMP:  65;

KALAMAZOO      PTCLDY    62  37  39 S12       29.95F
STURGIS*       PTCLDY    61  37  41 S9        29.96S
THREE RIVERS*  FAIR      62  36  37 S8        29.95F
6HR MIN TEMP:  62; 6HR MAX TEMP:  68;


$$
OHZ001>008-015>018-024>025-020100-
NORTHWEST OHIO

CITY           SKY/WX    TMP DP  RH WIND       PRES   REMARKS
DEFIANCE       CLEAR     61  35  37 S7        30.01F
6HR MIN TEMP:  61; 6HR MAX TEMP:  68;

FINDLAY        CLEAR     55  34  45 S9        30.03F
6HR MIN TEMP:  55; 6HR MAX TEMP:  66;

TOLEDO EXPRESS CLEAR     60  32  34 S5        30.01F
6HR MIN TEMP:  57; 6HR MAX TEMP:  65;

TOLEDO METCALF CLEAR     55  34  45 S8        30.03S
6HR MIN TEMP:  55; 6HR MAX TEMP:  65;

LIMA           CLEAR     60  34  37 S7        30.04F
6HR MIN TEMP:  60; 6HR MAX TEMP:  66;


$$
AND FOR LAKE MICHIGAN COASTAL AND OPEN LAKE BUOY OBSERVATIONS

STATION/POSITION TEMP    WIND        PRES    VSBY  WAVE
                 AIR SEA DIR/SP/G                  HT/PER
                 (F)     (DEG/KT/KT) (MB)    (MI)  (FT/S)
CALUMET HARBOR    69     160/ 14/ 19 1011.1S
MICHIGAN CITY     67     160/ 14/ 19   N/A
BURNS HARBOR      67     190/ 14/ 20 1013.5S
SAINT JOSEPH      66     160/  5/ 12 1013.5F

$$
&&



USA.gov is the U.S. government's official web portal to all federal, state and local government web resources and services.